Location: �couen
(49.0206°N, 2.3831°E)
Time: 08:20:29
(UTC+00:00)

Cosmos 1953 - Pass Details

Date: 16 October 2021
Orbit: 537 x 557 km, 82.5° (Epoch: 02 December)

Event Time Altitude Azimuth Distance (km) Brightness Sun altitude
Rises 18:10:50 0° 178° (S) 2,722 5.9 -12.6°
Reaches altitude 10° 18:13:00 10° 175° (S) 1,835 4.9 -13.0°
Maximum altitude 18:16:59 60° 96° (E) 645 2.3 -13.6°
Drops below altitude 10° 18:21:01 10° 17° (NNE) 1,856 4.9 -14.3°
Sets 18:23:13 0° 13° (NNE) 2,757 5.8 -14.6°
